GW3570 Weather Reports


Display with metric or nautical units.
time (UTC)temp
F
wind
direction
speed
MPH
gust
MPH
rain 1hr
in
rain 24hr
in
rain mn
in
humidity
%
barometer
mb
20260506221946 62 12 4.0 5.0 0.00 0.07 0.07 36 1017.3
20260506221443 63 354 7.0 8.0 0.00 0.07 0.07 36 1017.4
20260506220941 63 126 2.0 3.0 0.00 0.07 0.07 34 1017.5
20260506220436 62 322 3.0 5.0 0.00 0.07 0.07 37 1017.3
20260506215933 62 281 4.0 7.0 0.00 0.07 0.07 35 1017.2
20260506215429 62 328 3.0 5.0 0.00 0.07 0.07 35 1017.4
20260506214925 63 260 2.0 2.0 0.00 0.07 0.07 37 1017.4
20260506214422 63 359 3.0 5.0 0.00 0.07 0.07 38 1017.4
20260506213920 63 9 5.0 6.0 0.00 0.07 0.07 36 1017.1
20260506213418 63 332 4.0 5.0 0.00 0.07 0.07 39 1017.3
20260506212915 63 353 4.0 6.0 0.00 0.07 0.07 40 1017.3
20260506212411 63 4 5.0 6.0 0.00 0.07 0.07 37 1017.3
20260506211905 62 334 3.0 3.0 0.00 0.07 0.07 36 1017.1
20260506211402 63 318 3.0 6.0 0.00 0.07 0.07 38 1017.2
20260506210859 63 266 2.0 3.0 0.00 0.07 0.07 37 1017.4
20260506210356 63 42 4.0 5.0 0.00 0.07 0.07 37 1017.3
20260506205853 64 3 4.0 5.0 0.00 0.07 0.07 41 1017.3
20260506205349 63 16 7.0 9.0 0.00 0.07 0.07 41 1017.4
20260506204846 63 54 3.0 3.0 0.00 0.07 0.07 39 1017.4
20260506204343 63 258 3.0 3.0 0.00 0.07 0.07 44 1017.2
20260506203841 62 22 2.0 3.0 0.00 0.07 0.07 42 1017.4
20260506203338 63 308 5.0 8.0 0.00 0.07 0.07 42 1017.6
20260506202834 63 6 5.0 6.0 0.00 0.07 0.07 41 1017.9
20260506202332 62 299 8.0 10.0 0.00 0.07 0.07 41 1017.9
20260506201828 62 312 5.0 6.0 0.00 0.07 0.07 43 1017.8
20260506201326 62 335 5.0 6.0 0.00 0.07 0.07 46 1017.8
20260506200822 62 236 2.0 2.0 0.00 0.07 0.07 47 1017.8
20260506200318 62 280 3.0 5.0 0.00 0.07 0.07 41 1018.1
20260506195814 63 282 5.0 6.0 0.00 0.07 0.07 44 1018.1
20260506195312 62 200 2.0 5.0 0.00 0.07 0.07 40 1018.1
20260506194809 62 263 3.0 5.0 0.00 0.07 0.07 44 1018.3
20260506194305 62 326 5.0 9.0 0.00 0.07 0.07 45 1018.0
20260506193803 62 228 2.0 2.0 0.00 0.07 0.07 44 1018.5
20260506193259 61 288 4.0 6.0 0.00 0.07 0.07 44 1018.5
20260506192755 60 1 5.0 6.0 0.00 0.07 0.07 46 1018.6
20260506192253 60 47 2.0 3.0 0.00 0.07 0.07 44 1018.5
20260506191750 60 323 2.0 2.0 0.00 0.07 0.07 50 1018.8
20260506191246 62 313 5.0 6.0 0.00 0.07 0.07 51 1018.6
20260506190743 61 19 3.0 3.0 0.00 0.07 0.07 49 1018.7
20260506190240 61 284 4.0 5.0 0.00 0.07 0.07 48 1018.6
20260506185737 60 306 5.0 6.0 0.00 0.07 0.07 45 1018.8
20260506185233 60 318 5.0 7.0 0.00 0.07 0.07 44 1018.7
20260506184730 62 7 6.0 8.0 0.00 0.07 0.07 42 1018.9
20260506184228 61 11 6.0 7.0 0.00 0.07 0.07 49 1018.7
20260506183725 61 244 1.0 1.0 0.00 0.07 0.07 41 1018.9
20260506183220 60 327 8.0 10.0 0.00 0.07 0.07 44 1018.7
20260506182718 60 318 7.0 9.0 0.00 0.07 0.07 42 1019.0
20260506182215 60 199 3.0 3.0 0.00 0.07 0.07 40 1019.0
20260506181713 60 342 3.0 3.0 0.00 0.07 0.07 41 1019.3
20260506181210 60 0 7.0 8.0 0.00 0.07 0.07 44 1019.1
20260506180707 60 347 4.0 5.0 0.00 0.07 0.07 43 1019.3
20260506180202 60 357 6.0 7.0 0.00 0.07 0.07 45 1019.2
20260506175659 60 323 4.0 5.0 0.00 0.07 0.07 43 1019.0
20260506175156 60 9 5.0 7.0 0.00 0.07 0.07 46 1018.9
20260506174649 60 296 5.0 6.0 0.00 0.07 0.07 44 1019.3
20260506174145 59 347 4.0 5.0 0.00 0.07 0.07 47 1019.0
20260506173643 59 291 5.0 6.0 0.00 0.07 0.07 45 1019.0
20260506173140 59 344 5.0 6.0 0.00 0.07 0.07 46 1019.2
20260506172637 59 264 4.0 5.0 0.00 0.07 0.07 49 1018.9
20260506172133 60 279 5.0 8.0 0.00 0.07 0.07 48 1019.0
20260506171630 61 320 3.0 3.0 0.00 0.07 0.07 50 1018.7
20260506171129 59 198 2.0 3.0 0.00 0.07 0.07 48 1018.9
20260506170626 59 324 6.0 7.0 0.00 0.07 0.07 49 1019.0
20260506170123 58 343 6.0 7.0 0.00 0.07 0.07 53 1018.8
20260506165621 57 328 4.0 5.0 0.00 0.07 0.07 54 1019.1
20260506165117 57 235 3.0 3.0 0.00 0.07 0.07 58 1019.1
20260506164614 58 239 3.0 5.0 0.00 0.07 0.07 67 1018.9
20260506164112 56 176 2.0 2.0 0.00 0.07 0.07 60 1019.2
20260506163608 57 246 3.0 3.0 0.00 0.07 0.07 62 1019.0
20260506163103 57 311 3.0 5.0 0.00 0.07 0.07 62 1019.1
20260506162559 59 280 1.0 2.0 0.00 0.07 0.07 60 1018.9
20260506162051 58 158 0.0 0.0 0.00 0.07 0.07 61 1018.9
20260506161548 56 245 1.0 1.0 0.00 0.07 0.07 60 1018.9
20260506161040 55 245 3.0 3.0 0.00 0.07 0.07 62 1018.6
20260506160537 56 316 7.0 7.0 0.00 0.07 0.07 61 1018.9
20260506160034 56 329 5.0 6.0 0.00 0.07 0.07 63 1018.8
20260506155532 55 355 5.0 7.0 0.00 0.07 0.07 65 1018.8
20260506153704 55 310 3.0 5.0 0.00 0.07 0.07 62 1019.0
20260506153201 55 1 2.0 2.0 0.00 0.07 0.07 66 1019.0
20260506152658 54 212 0.0 0.0 0.00 0.07 0.07 63 1019.0
20260506152155 54 4 4.0 5.0 0.00 0.07 0.07 65 1019.0
20260506151654 54 239 2.0 2.0 0.00 0.07 0.07 70 1019.0
20260506151150 54 254 2.0 2.0 0.00 0.07 0.07 73 1019.0
20260506150647 53 271 3.0 3.0 0.00 0.07 0.07 72 1018.8
20260506150144 52 289 3.0 3.0 0.00 0.07 0.07 73 1018.8
20260506145641 52 252 1.0 2.0 0.00 0.07 0.07 76 1018.8
20260506145138 52 259 2.0 2.0 0.00 0.07 0.07 77 1018.8
20260506144636 51 257 2.0 2.0 0.00 0.07 0.07 78 1018.7
20260506144132 51 259 1.0 1.0 0.00 0.07 0.07 80 1018.6
20260506143630 51 301 2.0 2.0 0.00 0.07 0.07 81 1018.5
20260506143127 51 256 3.0 3.0 0.00 0.07 0.07 83 1018.7
20260506142626 50 307 3.0 3.0 0.00 0.07 0.07 84 1018.6
20260506142123 51 321 3.0 3.0 0.00 0.07 0.07 87 1018.4
20260506141621 51 260 1.0 1.0 0.00 0.07 0.07 85 1018.5
20260506141119 50 349 2.0 2.0 0.00 0.07 0.07 86 1018.3
20260506140616 50 298 2.0 2.0 0.00 0.07 0.07 85 1018.3
20260506140113 50 233 0.0 1.0 0.00 0.07 0.07 84 1018.3
20260506135610 50 289 2.0 2.0 0.00 0.07 0.07 85 1018.1
20260506135106 50 196 0.0 0.0 0.00 0.07 0.07 85 1017.9
20260506134603 49 214 0.0 0.0 0.00 0.07 0.07 86 1018.1
20260506134058 48 217 0.0 0.0 0.00 0.07 0.07 86 1018.1
20260506133556 48 234 0.0 0.0 0.00 0.07 0.07 88 1018.1
20260506133053 48 222 0.0 0.0 0.00 0.07 0.07 91 1017.8
20260506132550 48 224 0.0 0.0 0.00 0.07 0.07 92 1017.9
20260506132047 48 227 0.0 0.0 0.00 0.07 0.07 93 1018.2
20260506131544 47 217 0.0 0.0 0.00 0.07 0.07 94 1018.1
20260506131041 47 230 0.0 0.0 0.00 0.07 0.07 94 1017.9
20260506130538 46 201 0.0 0.0 0.00 0.07 0.07 95 1018.1
20260506130035 46 195 0.0 0.0 0.00 0.07 0.07 95 1018.1
20260506125533 46 207 0.0 0.0 0.00 0.07 0.07 95 1018.3
20260506125031 46 230 0.0 0.0 0.00 0.07 0.07 95 1018.2
20260506124529 46 260 0.0 0.0 0.00 0.07 0.07 95 1018.5
20260506124026 46 186 0.0 0.0 0.00 0.07 0.07 95 1018.3
20260506123524 45 176 0.0 0.0 0.00 0.07 0.07 94 1018.1
20260506123022 45 152 0.0 0.0 0.00 0.07 0.07 94 1018.3
20260506122518 45 166 0.0 1.0 0.00 0.07 0.07 94 1018.2
20260506122017 45 177 0.0 0.0 0.00 0.07 0.07 94 1018.1
20260506121514 45 193 0.0 0.0 0.00 0.07 0.07 94 1018.1
20260506121010 45 193 0.0 0.0 0.00 0.07 0.07 93 1018.1
20260506120508 45 193 0.0 0.0 0.00 0.07 0.07 93 1018.0
20260506120005 45 188 0.0 0.0 0.00 0.07 0.07 92 1018.1
20260506115502 45 220 0.0 0.0 0.00 0.07 0.07 92 1018.0
20260506115001 45 257 1.0 1.0 0.00 0.07 0.07 93 1018.4
20260506114458 45 281 1.0 1.0 0.00 0.07 0.07 93 1018.1
20260506113956 45 267 1.0 1.0 0.00 0.07 0.07 94 1017.8
20260506113454 45 285 1.0 2.0 0.00 0.07 0.07 94 1017.5
20260506112950 45 241 0.0 1.0 0.00 0.07 0.07 94 1017.7
20260506112448 45 342 2.0 2.0 0.00 0.07 0.07 95 1017.2
20260506111945 45 282 1.0 2.0 0.00 0.07 0.07 95 1017.5
20260506111443 45 263 1.0 1.0 0.00 0.07 0.07 95 1017.5
20260506110939 45 248 1.0 1.0 0.00 0.07 0.07 95 1017.4
20260506110438 45 248 1.0 1.0 0.00 0.07 0.07 96 1017.1
20260506105934 45 221 0.0 0.0 0.00 0.07 0.07 96 1016.9
20260506105430 45 244 0.0 0.0 0.00 0.07 0.07 96 1017.3
20260506104928 45 215 0.0 0.0 0.00 0.07 0.07 96 1017.3
20260506104426 45 221 0.0 0.0 0.00 0.07 0.07 96 1016.9
20260506103924 45 258 0.0 0.0 0.00 0.07 0.07 96 1017.4
20260506103421 45 279 1.0 1.0 0.00 0.07 0.07 96 1017.1
20260506102917 45 191 0.0 0.0 0.00 0.07 0.07 96 1016.6
20260506102416 45 219 0.0 0.0 0.00 0.07 0.07 95 1016.9
20260506101913 45 212 0.0 0.0 0.00 0.07 0.07 95 1016.5
20260506101409 45 180 0.0 0.0 0.00 0.07 0.07 95 1016.2
20260506100906 46 187 0.0 0.0 0.00 0.07 0.07 95 1016.3
20260506100404 45 197 0.0 0.0 0.00 0.07 0.07 95 1016.7
20260506095902 46 227 0.0 1.0 0.00 0.07 0.07 95 1016.5
20260506095400 46 234 0.0 0.0 0.00 0.07 0.07 95 1016.4
20260506094856 45 245 0.0 1.0 0.00 0.07 0.07 96 1016.5
20260506094355 46 316 2.0 2.0 0.00 0.07 0.07 96 1016.2
20260506093852 46 235 1.0 1.0 0.00 0.07 0.07 97 1015.8
20260506093350 46 291 3.0 5.0 0.00 0.07 0.07 97 1015.9
20260506092847 46 249 1.0 1.0 0.00 0.07 0.07 97 1015.6
20260506092345 46 276 1.0 2.0 0.00 0.07 0.07 97 1015.9
20260506091842 46 277 1.0 2.0 0.00 0.07 0.07 97 1016.1
20260506091340 46 258 1.0 1.0 0.00 0.07 0.07 97 1015.9
20260506090837 45 235 0.0 0.0 0.00 0.07 0.07 97 1015.2
20260506090335 45 238 0.0 0.0 0.00 0.07 0.07 97 1015.0
20260506085831 45 249 0.0 1.0 0.00 0.07 0.07 97 1015.0
20260506085327 45 259 1.0 1.0 0.00 0.07 0.07 97 1014.7
20260506084824 45 224 0.0 0.0 0.00 0.07 0.07 97 1014.6
20260506084320 45 241 0.0 0.0 0.00 0.07 0.07 97 1014.5
20260506083817 45 274 0.0 0.0 0.00 0.07 0.07 97 1014.8
20260506083315 46 231 0.0 0.0 0.00 0.07 0.07 97 1014.8
20260506082812 46 194 0.0 0.0 0.00 0.07 0.07 97 1014.8
20260506082308 46 223 0.0 0.0 0.00 0.07 0.07 97 1015.1
20260506081805 45 259 1.0 1.0 0.00 0.07 0.07 97 1015.5
20260506081303 45 212 0.0 0.0 0.00 0.07 0.07 97 1015.3
20260506080800 46 235 0.0 0.0 0.00 0.07 0.07 97 1015.2
20260506080256 46 316 1.0 2.0 0.05 0.07 0.07 97 1015.5
20260506073240 46 233 1.0 1.0 0.00 0.05 0.05 97 1016.0
20260506072737 46 288 1.0 2.0 0.05 0.05 0.05 97 1015.8
20260506072235 46 267 2.0 2.0 0.12 0.05 0.05 97 1016.0
20260506071733 46 209 1.0 1.0 0.07 0.04 0.04 97 1016.1
20260506071230 46 216 0.0 0.0 0.00 0.03 0.03 97 1015.9
20260506070727 46 234 1.0 2.0 0.00 0.03 0.03 97 1016.0
20260506070224 46 243 1.0 2.0 0.00 0.03 0.03 97 1016.5
20260506062201 46 227 0.0 0.0 0.00 0.03 0.03 97 1015.7
20260506061656 45 248 1.0 1.0 0.00 0.03 0.03 97 1015.7
20260506061154 45 230 0.0 0.0 0.00 0.03 0.03 97 1015.8
20260506060653 45 3 2.0 2.0 0.00 0.03 0.03 97 1015.8
20260506060149 45 358 2.0 2.0 0.00 0.03 0.03 97 1015.5
20260506051121 45 247 0.0 0.0 0.00 0.00 0.00 97 1014.8
20260506050620 45 211 0.0 0.0 0.05 0.00 0.00 97 1015.1
20260506050116 45 226 0.0 0.0 0.05 0.00 0.00 97 1015.0
20260506045110 45 162 0.0 0.0 0.00 0.55 0.55 97 1014.6
20260506044608 45 210 0.0 0.0 0.00 0.55 0.55 97 1014.8
20260506044104 45 226 0.0 0.0 0.00 0.55 0.55 97 1014.6
20260506043601 45 240 0.0 0.0 0.00 0.55 0.55 97 1014.4
20260506043100 45 215 0.0 0.0 0.00 0.55 0.55 96 1014.3
20260506042558 45 214 0.0 0.0 0.00 0.55 0.55 96 1014.3
20260506042056 45 207 0.0 0.0 0.07 0.55 0.55 96 1014.0
20260506041554 45 184 0.0 0.0 0.07 0.55 0.55 96 1014.4
20260506041051 45 216 0.0 0.0 0.05 0.54 0.54 96 1014.5
20260506040549 45 194 0.0 0.0 0.12 0.54 0.54 96 1014.5
20260506040044 45 196 0.0 0.0 0.12 0.53 0.53 96 1014.6
20260506035542 45 202 0.0 0.0 0.05 0.52 0.52 96 1014.4
20260506035038 45 211 0.0 0.0 0.05 0.52 0.52 96 1014.8
20260506034536 45 194 0.0 0.0 0.00 0.51 0.51 96 1014.8
20260506034032 45 204 0.0 0.0 0.07 0.51 0.51 96 1014.8
20260506033530 45 192 0.0 0.0 0.07 0.51 0.51 96 1014.7
20260506033027 45 195 0.0 0.0 0.00 0.50 0.50 96 1014.4
20260506032524 45 153 0.0 1.0 0.05 0.50 0.50 96 1014.6
20260506032021 45 89 1.0 1.0 0.07 0.49 0.49 96 1014.5
20260506031519 45 198 0.0 0.0 0.19 0.49 0.49 96 1014.3
20260506031015 45 166 1.0 1.0 0.17 0.48 0.48 96 1014.3
20260506030513 45 182 0.0 0.0 0.05 0.46 0.46 96 1014.1
20260506030010 45 89 2.0 3.0 0.07 0.45 0.45 96 1014.2
20260506025507 45 82 0.0 1.0 0.14 0.45 0.45 96 1014.3
20260506025004 45 198 0.0 0.0 0.07 0.44 0.44 96 1014.8
20260506024500 45 214 0.0 0.0 0.05 0.43 0.43 96 1014.4
20260506023956 45 193 0.0 0.0 0.07 0.42 0.42 96 1014.5
20260506023453 45 213 0.0 0.0 0.12 0.42 0.42 96 1014.3
20260506022950 45 203 0.0 0.0 0.12 0.41 0.41 96 1014.0
20260506022448 45 214 0.0 0.0 0.07 0.40 0.40 96 1014.1
20260506021945 45 215 0.0 0.0 0.05 0.39 0.39 95 1014.1
20260506021442 45 237 0.0 0.0 0.12 0.39 0.39 95 1014.1
20260506020939 45 227 0.0 0.0 0.12 0.38 0.38 95 1014.1
20260506020437 45 213 0.0 0.0 0.05 0.37 0.37 95 1014.0
20260506015934 45 249 0.0 0.0 0.07 0.36 0.36 95 1013.9
20260506015432 45 226 0.0 0.0 0.07 0.36 0.36 94 1013.7
20260506014928 45 206 0.0 0.0 0.00 0.35 0.35 94 1013.9
20260506014426 45 204 0.0 0.0 0.00 0.35 0.35 94 1013.8
20260506013922 45 244 1.0 1.0 0.00 0.35 0.35 94 1013.8
20260506013420 45 206 0.0 0.0 0.00 0.35 0.35 94 1013.8
20260506012916 45 226 0.0 1.0 0.00 0.35 0.35 94 1013.2
20260506012412 45 210 0.0 0.0 0.00 0.35 0.35 94 1013.0
20260506011910 45 238 1.0 1.0 0.05 0.35 0.35 94 1012.8
20260506011407 45 230 1.0 1.0 0.05 0.35 0.35 94 1012.8
20260506010904 45 223 1.0 1.0 0.00 0.34 0.34 94 1012.5
20260506010402 45 212 0.0 0.0 0.00 0.34 0.34 94 1012.7
20260506005858 45 272 1.0 1.0 0.00 0.34 0.34 94 1013.1
20260506005356 45 274 2.0 2.0 0.00 0.34 0.34 94 1013.2
20260506004851 45 179 0.0 0.0 0.00 0.34 0.34 94 1013.3
20260506004349 45 238 0.0 1.0 0.00 0.34 0.34 94 1012.9
20260506003845 46 328 1.0 2.0 0.00 0.34 0.34 95 1013.2
20260506003341 46 299 2.0 2.0 0.00 0.34 0.34 95 1013.1
20260506002838 46 314 2.0 3.0 0.00 0.34 0.34 94 1013.0
20260506002334 46 339 2.0 2.0 0.00 0.34 0.34 94 1013.1
20260506001830 46 268 1.0 1.0 0.00 0.34 0.34 94 1013.2
20260506001327 46 319 3.0 3.0 0.00 0.34 0.34 94 1012.8
20260506000824 46 262 0.0 1.0 0.00 0.34 0.34 94 1012.8
20260506000323 46 312 1.0 2.0 0.00 0.34 0.34 94 1012.8
20260505235819 46 306 2.0 2.0 0.00 0.34 0.34 94 1013.1
20260505235316 46 226 0.0 0.0 0.00 0.34 0.34 94 1012.7
20260505234813 46 337 2.0 2.0 0.00 0.34 0.34 94 1013.1
20260505234311 46 210 1.0 1.0 0.00 0.34 0.34 94 1012.7
20260505233807 46 359 4.0 5.0 0.00 0.34 0.34 94 1013.0
20260505233305 46 337 2.0 2.0 0.00 0.34 0.34 94 1012.9
20260505232802 47 266 1.0 2.0 0.00 0.34 0.34 94 1012.6
20260505232300 46 319 3.0 3.0 0.00 0.34 0.34 93 1012.6
20260505231756 47 211 0.0 0.0 0.00 0.34 0.34 93 1012.5
20260505231255 47 219 0.0 0.0 0.00 0.34 0.34 93 1012.8
20260505230753 47 326 1.0 1.0 0.00 0.34 0.34 93 1012.7
20260505230249 47 290 1.0 2.0 0.00 0.34 0.34 93 1012.2
20260505225746 47 358 2.0 2.0 0.00 0.34 0.34 94 1012.2
20260505225243 47 290 1.0 1.0 0.00 0.34 0.34 94 1012.4
20260505224738 48 241 1.0 2.0 0.00 0.34 0.34 94 1012.4
20260505224236 47 258 1.0 1.0 0.07 0.34 0.34 94 1012.3
20260505223733 47 106 1.0 2.0 0.07 0.34 0.34 94 1012.0
20260505223229 48 256 1.0 2.0 0.00 0.33 0.33 94 1012.3
20260505222725 48 227 0.0 0.0 0.00 0.33 0.33 95 1012.7
20260505222221 48 229 0.0 0.0 0.07 0.33 0.33 95 1012.3